, NM

(GMT )
Holloman AFB

Weather History for KHMN - June, 2013

Change the Weather History Date:

Sunday, June 30, 2013

  Actual Average Record
Temperature  
Mean Temperature 83 °F -  
Max Temperature 97 °F 92 °F 104 °F (2014)
Min Temperature 67 °F 65 °F 57 °F (2004)
Cooling Degree Days 18    
Growing Degree Days 33 (Base 50)    
Moisture  
Dew Point 51 °F    
Average Humidity 37    
Maximum Humidity 85    
Minimum Humidity 17    
Precipitation  
Precipitation 0.29 in - - ()
Sea Level Pressure  
Sea Level Pressure 29.90 in    
Wind  
Wind Speed 13 mph (SE)    
Max Wind Speed 52 mph    
Max Gust Speed 81 mph    
Visibility 8 miles    
Events Rain , Thunderstorm    
Averages and records for this station are not official NWS values.
T = Trace of Precipitation, MM = Missing Value Source: NWS Daily Summary

Daily Weather History Graph

Daily Weather History Graph

Search for Another Location

Airport or City:

Trip Planner

Search our weather history database for the weather conditions in past years. The results will help you decide how hot, cold, wet, or windy it might be!

Date:

Astronomy

Jun. 30, 2013 Rise Set
Actual Time 5:59 AM MDT 8:16 PM MDT
Civil Twilight 5:31 AM MDT 8:45 PM MDT
Nautical Twilight 4:56 AM MDT 9:20 PM MDT
Astronomical Twilight 4:17 AM MDT 9:58 PM MDT
Moon 12:44 AM MDT (6/30) 1:47 PM MDT (6/30)
Length of Visible Light 15h 14m
Length of Day
14h 17m
Last Quarter, 45% of the Moon is Illuminated
Jun 30
Last Quarter
Jul 8
New
Jul 15
First Quarter
Jul 22
Full
Jul 29
Last Quarter

Hourly Weather History & Observations

Time (MDT) Temp. Heat Index Dew Point Humidity Pressure Visibility Wind Dir Wind Speed Gust Speed Precip Events Conditions
12:58 AM 85.5 °F - 45.3 °F 25% 29.82 in 10.0 mi NNE 8.1 mph - N/A   Clear
1:58 AM 86.2 °F - 42.8 °F 22% 29.79 in 10.0 mi East 10.4 mph - N/A   Clear
2:58 AM 83.3 °F - 43.9 °F 25% 29.77 in 10.0 mi South 9.2 mph - N/A   Partly Cloudy
3:58 AM 79.7 °F - 45.3 °F 30% 29.79 in 10.0 mi West 4.6 mph - N/A   Clear
4:58 AM 77.7 °F - 46.8 °F 33% 29.81 in 10.0 mi ESE 2.3 mph - N/A   Clear
5:58 AM 75.6 °F - 47.1 °F 36% 29.83 in 10.0 mi SSW 5.8 mph - N/A   Scattered Clouds
6:58 AM 73.6 °F - 48.2 °F 41% 29.85 in 10.0 mi SE 5.8 mph - N/A   Clear
7:58 AM 78.8 °F - 49.6 °F 36% 29.86 in 10.0 mi SSE 8.1 mph - N/A   Clear
8:58 AM 81.0 °F - 49.6 °F 33% 29.88 in 10.0 mi South 11.5 mph - N/A   Clear
9:58 AM 86.4 °F - 49.5 °F 28% 29.86 in 10.0 mi SW 8.1 mph - N/A   Clear
10:58 AM 88.3 °F - 48.9 °F 26% 29.85 in 10.0 mi South 5.8 mph - N/A   Clear
11:58 AM 91.0 °F - 48.4 °F 23% 29.83 in 10.0 mi SSW 6.9 mph - N/A   Clear
12:58 PM 94.5 °F - 46.9 °F 20% 29.79 in 10.0 mi SW 10.4 mph - N/A   Mostly Cloudy
1:58 PM 96.1 °F - 45.3 °F 18% 29.77 in 10.0 mi SE 4.6 mph - N/A   Mostly Cloudy
2:58 PM 96.4 °F - 45.0 °F 17% 29.74 in 10.0 mi SE 15.0 mph 18.4 mph N/A   Partly Cloudy
3:15 PM 96.8 °F - 46.4 °F 18% 29.97 in 10.0 mi South 12.7 mph 23.0 mph N/A   Clear
3:35 PM 96.8 °F - 46.4 °F 18% 29.97 in 10.0 mi ESE 13.8 mph 23.0 mph N/A   Clear
3:58 PM 97.3 °F - 46.2 °F 17% 29.72 in 10.0 mi SE 13.8 mph - N/A   Clear
4:15 PM 98.6 °F - 46.4 °F 17% 29.95 in 10.0 mi South 15.0 mph 23.0 mph N/A   Clear
4:33 PM 96.8 °F - 46.4 °F 18% 29.95 in 10.0 mi SE 12.7 mph 23.0 mph N/A   Clear
4:58 PM 96.8 °F - 45.9 °F 17% 29.69 in 10.0 mi SE 13.8 mph 19.6 mph N/A   Clear
5:58 PM 95.7 °F - 45.0 °F 17% 29.68 in 10.0 mi South 16.1 mph 20.7 mph N/A   Clear
6:58 PM 93.6 °F - 45.3 °F 19% 29.69 in 10.0 mi SSE 17.3 mph 20.7 mph N/A   Partly Cloudy
7:23 PM 91.4 °F - 48.2 °F 23% 30.00 in 6.0 mi NNW 32.2 mph 48.3 mph N/A   Haze
7:25 PM 89.6 °F 87.3 °F 53.6 °F 29% 29.98 in 0.5 mi North 38.0 mph 80.6 mph N/A   Haze
7:26 PM 89.6 °F 87.3 °F 53.6 °F 29% 29.98 in 0.5 mi North 43.7 mph 80.6 mph N/A   Haze
7:27 PM 87.8 °F 85.7 °F 53.6 °F 31% 29.98 in 0.2 mi North 51.8 mph 80.6 mph N/A   Haze
7:32 PM 84.2 °F 82.8 °F 53.6 °F 35% 29.98 in 0.2 mi NNE 35.7 mph 80.6 mph N/A   Haze
7:34 PM 84.2 °F 82.8 °F 53.6 °F 35% 30.00 in 0.2 mi NNE 49.5 mph - N/A Rain , Thunderstorm Thunderstorms and Rain
7:44 PM 71.6 °F - 59.0 °F 64% 30.03 in - North - - N/A Rain , Thunderstorm Heavy Thunderstorms and Rain
7:51 PM 71.6 °F - 59.0 °F 64% 30.04 in - North - - N/A Rain , Thunderstorm Heavy Rain
7:52 PM 71.6 °F - 59.0 °F 64% 30.04 in - North - - N/A Rain , Thunderstorm Heavy Thunderstorms and Rain
7:58 PM 71.6 °F - 59.0 °F 64% 29.85 in - North - - 0.24 in Rain , Thunderstorm Heavy Thunderstorms and Rain
8:10 PM 75.2 °F - 57.2 °F 53% 30.02 in - North - - N/A Thunderstorm Thunderstorm
8:38 PM 77.0 °F - 57.2 °F 50% 30.01 in 7.0 mi North - - N/A   Clear
8:58 PM 77.0 °F - 53.6 °F 44% 29.79 in 7.0 mi North - - 0.03 in   Clear
9:03 PM 77.0 °F - 55.4 °F 47% 30.00 in 10.0 mi ESE 12.7 mph 25.3 mph N/A   Clear
9:58 PM 73.9 °F - 57.4 °F 56% 29.81 in 10.0 mi SW 11.5 mph - N/A   Clear
10:47 PM 75.2 °F - 57.2 °F 53% 30.13 in 10.0 mi North 21.9 mph 29.9 mph N/A   Light Drizzle
10:58 PM 73.9 °F - 59.0 °F 59% 29.93 in 9.0 mi North 32.2 mph 42.6 mph 0.01 in Rain Light Rain
11:21 PM 68.0 °F - 62.6 °F 83% 30.17 in 10.0 mi NNW 26.5 mph 38.0 mph N/A   Mostly Cloudy
11:44 PM 68.0 °F - 60.8 °F 78% 30.21 in 10.0 mi North 18.4 mph - N/A Rain Light Rain
11:58 PM 67.5 °F - 63.0 °F 85% 30.01 in 10.0 mi North 13.8 mph - 0.01 in Rain Light Rain